Weather Roundup
Issued by NWS Springfield, MO

Home | Current Version | Previous Version | Text Only | Print | Product List | Glossary On
Versions: 1 2 3 4 5 6 7 8 9 10 11 12 13 14 15 16 17 18 19 20 21 22 23 24 25 26 27 28 29 30 31 32 33 34 35 36 37 38 39 40 41 42 43 44 45 46 47 48 49 50
000
NZUS99 KSGF 300607
HRRSGF

HOURLY WEATHER
NATIONAL WEATHER SERVICE SPRINGFIELD MO
100 AM CDT SAT JUL 30 2016

......SGF CWA......

CITY           SKY/WX    TMP DP  RH WIND       PRES   REMARKS
SPRINGFIELD    PTCLDY    72  68  87 CALM      30.01S
6HR MIN TEMP:  72; 6HR MAX TEMP:  83;

JOPLIN         CLEAR     72  69  90 E3        30.00F
6HR MIN TEMP:  71; 6HR MAX TEMP:  85;

WEST PLAINS    CLOUDY    70  67  90 W3        30.02S
6HR MIN TEMP:  70; 6HR MAX TEMP:  75;

ROLLA          CLEAR     69  66  90 CALM      29.99S
6HR MIN TEMP:  68; 6HR MAX TEMP:  80;

OSAGE BEACH    CLEAR     71  70  96 CALM      30.01R
BRANSON        CLOUDY    72  72 100 CALM      30.02S FOG

......SURROUNDING SGF CWA......

CITY           SKY/WX    TMP DP  RH WIND       PRES   REMARKS
CHANUTE        CLEAR     71  69  93 CALM      30.00F
PARSONS        CLEAR     72  70  93 CALM      30.01F
COFFEYVILLE    CLEAR     72  70  93 NE3       29.99F
EMPORIA        CLEAR     70  67  90 E5        30.01F
GROVE OK       CLEAR     72  72 100 CALM      30.01S
ROGERS AR      CLEAR     73  70  90 CALM      30.02S
SILOAM SPRINGS CLEAR     70  63  78 SE7       30.03S
HARRISON AR    MOCLDY    70  69  97 W3        30.02S
NEAR YELLVILLE CLOUDY    72  66  83 CALM      29.97S

......KANSAS AND MISSOURI......

CITY           SKY/WX    TMP DP  RH WIND       PRES   REMARKS
KANSAS CTY INT CLEAR     67  60  78 NE6       30.03R
DOWNTOWN KC    CLEAR     72  62  71 NE6       30.02R
COLUMBIA       CLEAR     69  65  86 CALM      29.99S
SEDALIA        CLEAR     71  65  81 CALM      30.01S
ST JOSEPH      PTCLDY    66  62  87 CALM      30.02S
ST LOUIS       PTCLDY    76  67  73 CALM      29.96S
SPIRIT OF STL  CLEAR     70  69  97 CALM      29.95S
KIRKSVILLE     CLEAR     62  61  96 W3        30.00S
WICHITA        CLOUDY    74  68  81 CALM      30.02R
TOPEKA         PTCLDY    70  65  84 CALM      30.02S
OLATHE         CLEAR     72  62  71 N5        30.03R

......TENNESSEE......

CITY           SKY/WX    TMP DP  RH WIND       PRES   REMARKS
MEMPHIS        PTCLDY    72  69  90 CALM      29.98S FOG
NASHVILLE      MOCLDY    74  70  87 CALM      29.95R

......ARKANSAS.......

CITY           SKY/WX    TMP DP  RH WIND       PRES   REMARKS
FAYETTEVILLE   PTCLDY    72  72 100 CALM      30.02R
FT SMITH       MOCLDY    76  69  79 CALM      29.98R
LITTLE ROCK    CLOUDY    75  71  87 SW5       29.99R

......OKLAHOMA.......

CITY           SKY/WX    TMP DP  RH WIND       PRES   REMARKS
TULSA          MOCLDY    77  69  76 W3        29.97S
PONCA CITY     PTCLDY    74  68  81 CALM      30.00R
MCALESTER      MOCLDY    76  71  85 CALM      30.00S
OKLAHOMA CITY  CLOUDY    74  68  81 SE5       30.00F

......IOWA............

CITY           SKY/WX    TMP DP  RH WIND       PRES   REMARKS
DES MOINES     CLOUDY    69  65  86 NE5       30.00S
QUAD CITIES    CLOUDY    71  67  87 E7        29.96R

......ILLINOIS........

CITY           SKY/WX    TMP DP  RH WIND       PRES   REMARKS
QUINCY         CLEAR     67  66  97 NW6       29.96S
CHICAGO        CLOUDY    71  67  87 N7        29.95S



USA.gov is the U.S. government's official web portal to all federal, state and local government web resources and services.